Merrill, WI

12:47 AM CDT on March 25, 2017 (GMT -0500)
Merrill Municipal

Weather History for KRRL - February, 2013

Change the Weather History Date:

Tuesday, February 19, 2013

  Actual Average Record
Temperature  
Mean Temperature 16 °F -  
Max Temperature 28 °F 31 °F 57 °F (1930)
Min Temperature 5 °F 9 °F -34 °F (1929)
Degree Days  
Heating Degree Days 48    
Moisture  
Dew Point 2 °F    
Average Humidity 68    
Maximum Humidity 86    
Minimum Humidity 52    
Precipitation  
Precipitation 0.00 in - - ()
Sea Level Pressure  
Sea Level Pressure 29.82 in    
Wind  
Wind Speed 14 mph (NW)    
Max Wind Speed 21 mph    
Max Gust Speed 29 mph    
Visibility 7 miles    
Events Snow    
Averages and records for this station are not official NWS values.
T = Trace of Precipitation, MM = Missing Value Source: NWS Daily Summary

Daily Weather History Graph

Daily Weather History Graph

Search for Another Location

Airport or City:

Trip Planner

Search our weather history database for the weather conditions in past years. The results will help you decide how hot, cold, wet, or windy it might be!

Date:

Astronomy

Feb. 19, 2013 Rise Set
Actual Time 6:53 AM CST 5:32 PM CST
Civil Twilight 6:23 AM CST 6:02 PM CST
Nautical Twilight 5:49 AM CST 6:36 PM CST
Astronomical Twilight 5:15 AM CST 7:11 PM CST
Moon 11:55 AM CST (2/19) 2:33 AM CST (2/19)
Length of Visible Light 11h 39m
Length of Day
10h 39m
Waxing Gibbous, 67% of the Moon is Illuminated
Feb 19
Waxing Gibbous
Feb 25
Full
Mar 4
Last Quarter
Mar 11
New
Mar 19
First Quarter

Hourly Weather History & Observations

Time (CST) Temp. Windchill Dew Point Humidity Pressure Visibility Wind Dir Wind Speed Gust Speed Precip Events Conditions
12:35 AM 28.4 °F 21.2 °F 23.0 °F 80% 29.47 in 10.0 mi NNW 6.9 mph - N/A   Overcast
1:15 AM 28.4 °F 18.5 °F 24.8 °F 86% 29.48 in 5.0 mi NW 11.5 mph 19.6 mph N/A   Overcast
1:35 AM 26.6 °F 14.7 °F 23.0 °F 86% 29.48 in 7.0 mi NW 15.0 mph 23.0 mph N/A   Overcast
3:35 AM 19.4 °F 3.2 °F 14.0 °F 80% 29.52 in 7.0 mi NNW 20.7 mph 28.8 mph N/A Snow Light Snow
3:55 AM 19.4 °F 3.6 °F 12.2 °F 74% 29.53 in 7.0 mi NNW 19.6 mph 26.5 mph N/A Snow Light Snow
4:15 AM 17.6 °F 2.2 °F 12.2 °F 79% 29.54 in 5.0 mi NNW 17.3 mph 24.2 mph N/A Snow Light Snow
4:35 AM 17.6 °F 0.9 °F 10.4 °F 73% 29.55 in 4.0 mi NW 20.7 mph 28.8 mph N/A Snow Light Snow
4:55 AM 17.6 °F 2.7 °F 8.6 °F 68% 29.57 in 7.0 mi NNW 16.1 mph 25.3 mph N/A Snow Light Snow
5:15 AM 17.6 °F 3.7 °F 10.4 °F 73% 29.58 in 5.0 mi NW 13.8 mph 18.4 mph N/A Snow Light Snow
5:35 AM 14.0 °F -2.5 °F 10.4 °F 86% 29.59 in 3.0 mi NW 17.3 mph 24.2 mph N/A Snow Light Snow
5:55 AM 14.0 °F -0.8 °F 8.6 °F 79% 29.61 in 7.0 mi NNW 13.8 mph 24.2 mph N/A Snow Light Snow
6:15 AM 14.0 °F 0.5 °F 8.6 °F 79% 29.61 in 3.0 mi NW 11.5 mph 20.7 mph N/A Snow Light Snow
6:35 AM 12.2 °F -3.1 °F 5.0 °F 73% 29.63 in 5.0 mi NW 13.8 mph 25.3 mph N/A Snow Light Snow
6:55 AM 12.2 °F -1.8 °F 5.0 °F 73% 29.66 in 5.0 mi NNW 11.5 mph 20.7 mph N/A Snow Light Snow
7:15 AM 10.4 °F -7.7 °F 3.2 °F 73% 29.66 in 3.0 mi NNW 18.4 mph 24.2 mph N/A Snow Light Snow
7:35 AM 10.4 °F -8.6 °F 3.2 °F 73% 29.67 in 2.5 mi NNW 20.7 mph 27.6 mph N/A Snow Light Snow
7:55 AM 10.4 °F -6.6 °F 1.4 °F 67% 29.68 in 5.0 mi NW 16.1 mph 19.6 mph N/A Snow Light Snow
8:55 AM 8.6 °F -8.9 °F 1.4 °F 73% 29.71 in 1.5 mi NW 16.1 mph 21.9 mph N/A Snow Light Snow
9:15 AM 8.6 °F -6.3 °F 1.4 °F 73% 29.73 in 1.8 mi NW 11.5 mph 19.6 mph N/A Snow Light Snow
9:35 AM 6.8 °F -11.8 °F -0.4 °F 72% 29.73 in 1.8 mi NW 17.3 mph 26.5 mph N/A Snow Light Snow
9:55 AM 6.8 °F -11.3 °F -0.4 °F 72% 29.74 in 2.0 mi NNW 16.1 mph 24.2 mph N/A Snow Light Snow
10:15 AM 6.8 °F -11.8 °F -2.2 °F 67% 29.75 in 3.0 mi NW 17.3 mph 24.2 mph N/A Snow Light Snow
10:35 AM 6.8 °F -9.3 °F -0.4 °F 72% 29.76 in 2.5 mi NW 12.7 mph 21.9 mph N/A Snow Light Snow
10:55 AM 6.8 °F -12.4 °F -2.2 °F 67% 29.77 in 3.0 mi NW 18.4 mph 24.2 mph N/A   Haze
11:15 AM 6.8 °F -10.7 °F -4.0 °F 61% 29.78 in 4.0 mi NW 15.0 mph 21.9 mph N/A   Haze
11:35 AM 6.8 °F -8.6 °F -4.0 °F 61% 29.79 in 5.0 mi NW 11.5 mph 24.2 mph N/A   Haze
11:55 AM 6.8 °F -11.3 °F -4.0 °F 61% 29.80 in 5.0 mi NW 16.1 mph 27.6 mph N/A   Haze
12:15 PM 6.8 °F -9.3 °F -4.0 °F 61% 29.81 in 5.0 mi NW 12.7 mph 25.3 mph N/A   Haze
12:35 PM 8.6 °F -10.0 °F -4.0 °F 57% 29.81 in 5.0 mi NNW 18.4 mph 25.3 mph N/A   Haze
12:55 PM 8.6 °F -6.3 °F -4.0 °F 57% 29.82 in 10.0 mi NNW 11.5 mph 21.9 mph N/A   Mostly Cloudy
1:15 PM 10.4 °F -8.2 °F -2.2 °F 57% 29.83 in 5.0 mi NNW 19.6 mph 26.5 mph N/A   Haze
1:35 PM 10.4 °F -7.2 °F -2.2 °F 57% 29.83 in 10.0 mi NNW 17.3 mph 24.2 mph N/A   Overcast
1:55 PM 10.4 °F -7.2 °F -4.0 °F 52% 29.84 in 10.0 mi NW 17.3 mph 21.9 mph N/A   Mostly Cloudy
2:15 PM 10.4 °F -6.6 °F -2.2 °F 57% 29.85 in 10.0 mi NNW 16.1 mph 23.0 mph N/A   Mostly Cloudy
2:35 PM 12.2 °F -4.3 °F -2.2 °F 53% 29.86 in 10.0 mi NW 16.1 mph 20.7 mph N/A   Mostly Cloudy
2:55 PM 10.4 °F -6.6 °F -2.2 °F 57% 29.88 in 10.0 mi NNW 16.1 mph 23.0 mph N/A   Mostly Cloudy
3:15 PM 10.4 °F -4.8 °F -2.2 °F 57% 29.89 in 10.0 mi NW 12.7 mph 20.7 mph N/A   Mostly Cloudy
3:35 PM 10.4 °F -6.0 °F -0.4 °F 62% 29.90 in 10.0 mi NNW 15.0 mph 19.6 mph N/A   Overcast
3:55 PM 10.4 °F -5.4 °F -0.4 °F 62% 29.92 in 10.0 mi North 13.8 mph 21.9 mph N/A   Overcast
4:15 PM 8.6 °F -7.7 °F -2.2 °F 62% 29.93 in 10.0 mi North 13.8 mph - N/A   Overcast
4:35 PM 8.6 °F -10.0 °F -2.2 °F 62% 29.95 in 10.0 mi NNW 18.4 mph 23.0 mph N/A   Overcast
4:55 PM 8.6 °F -8.3 °F -2.2 °F 62% 29.96 in 10.0 mi North 15.0 mph 19.6 mph N/A   Overcast
5:15 PM 8.6 °F -4.7 °F -2.2 °F 62% 29.98 in 10.0 mi NNW 9.2 mph 18.4 mph N/A   Overcast
6:55 PM 5.0 °F -10.8 °F -4.0 °F 66% 30.02 in 10.0 mi NW 11.5 mph 19.6 mph N/A   Clear
7:15 PM 5.0 °F -10.8 °F -4.0 °F 66% 30.03 in 10.0 mi NW 11.5 mph - N/A   Clear
7:35 PM 5.0 °F -9.1 °F -4.0 °F 66% 30.04 in 10.0 mi NW 9.2 mph 16.1 mph N/A   Clear
8:15 PM 5.0 °F -8.1 °F -4.0 °F 66% 30.04 in 10.0 mi NW 8.1 mph 17.3 mph N/A   Clear
8:35 PM 5.0 °F -8.1 °F -4.0 °F 66% 30.05 in 10.0 mi NW 8.1 mph - N/A   Clear
8:55 PM 5.0 °F -8.1 °F -4.0 °F 66% 30.06 in 10.0 mi NW 8.1 mph 16.1 mph N/A   Clear
9:15 PM 5.0 °F -9.1 °F -4.0 °F 66% 30.06 in 10.0 mi NW 9.2 mph - N/A   Clear
9:35 PM 5.0 °F -9.1 °F -2.2 °F 72% 30.07 in 10.0 mi NW 9.2 mph - N/A   Clear
9:55 PM 5.0 °F -9.1 °F -2.2 °F 72% 30.07 in 10.0 mi NW 9.2 mph 16.1 mph N/A   Clear
10:15 PM 5.0 °F -8.1 °F -2.2 °F 72% 30.08 in 10.0 mi NW 8.1 mph - N/A   Clear
10:35 PM 5.0 °F -9.1 °F -2.2 °F 72% 30.09 in 10.0 mi NW 9.2 mph - N/A   Clear
10:55 PM 5.0 °F -8.1 °F -2.2 °F 72% 30.09 in 10.0 mi NW 8.1 mph - N/A   Clear
11:15 PM 5.0 °F -10.8 °F -0.4 °F 78% 30.10 in 10.0 mi NW 11.5 mph - N/A   Clear
11:35 PM 5.0 °F -10.8 °F -0.4 °F 78% 30.11 in 10.0 mi NNW 11.5 mph 17.3 mph N/A   Clear
11:55 PM 6.8 °F -9.3 °F -0.4 °F 72% 30.11 in 10.0 mi NNW 12.7 mph 20.7 mph N/A   Clear